This is the latest recevied weather packets stored in our database for station/object KD7JB. If no packets are shown the sender has not sent any weather packets the latest 10 day(s).
| Time | Temp. | Humidity | Pressure | Rain* | Wind** | Luminosity | Snow |
|---|---|---|---|---|---|---|---|
| 1777135307 | 3.89° C | 39% | 1172 hPa | 0 mm | - | 491 W/m² | - |
| 1777135005 | 5° C | 38% | 1171.7 hPa | 0 mm | - | 483 W/m² | - |
| 1777134702 | 4.44° C | 37% | 1171.9 hPa | 0 mm | - | 466 W/m² | - |
| 1777134398 | 3.89° C | 39% | 1171.9 hPa | 0 mm | - | 412 W/m² | - |
| 1777134094 | 4.44° C | 37% | 1171.9 hPa | 0 mm | - | 441 W/m² | - |
| 1777133791 | 5° C | 37% | 1171.7 hPa | 0 mm | - | 429 W/m² | - |
| 1777133487 | 5° C | 37% | 1172 hPa | 0 mm | - | 415 W/m² | - |
| 1777133187 | 4.44° C | 41% | 1171.9 hPa | 0 mm | - | 401 W/m² | - |
| 1777132887 | 5° C | 40% | 1171.9 hPa | 0 mm | - | 388 W/m² | - |
| 1777132583 | 4.44° C | 42% | 1171.9 hPa | 0 mm | - | 375 W/m² | - |
| 1777132281 | 4.44° C | 44% | 1171.8 hPa | 0 mm | - | 360 W/m² | - |
| 1777131976 | 4.44° C | 42% | 1171.9 hPa | 0 mm | - | 335 W/m² | - |
| 1777131675 | 4.44° C | 43% | 1171.9 hPa | 0 mm | - | 329 W/m² | - |
| 1777131370 | 3.33° C | 42% | 1172.1 hPa | 0 mm | - | 318 W/m² | - |
| 1777131069 | 3.33° C | 41% | 1172.1 hPa | 0 mm | - | 304 W/m² | - |
| 1777130765 | 4.44° C | 40% | 1172.2 hPa | 0 mm | - | 289 W/m² | - |
| 1777130461 | 3.89° C | 37% | 1172.1 hPa | 0 mm | - | 274 W/m² | - |
| 1777130157 | 3.89° C | 36% | 1172.2 hPa | 0 mm | - | 259 W/m² | - |
| 1777129853 | 3.89° C | 36% | 1172 hPa | 0 mm | - | 245 W/m² | - |
| 1777129548 | 3.89° C | 37% | 1172.4 hPa | 0 mm | - | 229 W/m² | - |
| 1777129248 | 3.89° C | 37% | 1172 hPa | 0 mm | - | 214 W/m² | - |
| 1777128944 | 3.89° C | 37% | 1172.1 hPa | 0 mm | - | 200 W/m² | - |
* Rain latest hour (hover to see other rain measurements)
** Current wind speed in m/s (hover to see current wind gust speed)